Location: Madrid
(40.4000°N, 3.6830°W)
Time: 22:49:52
(UTC+01:00)

ISS - Pass Details

Date: 14 January 2018
Orbit: 402 x 407 km, 51.6° (Epoch: 23 January)

Event Time Altitude Azimuth Distance (km) Brightness Sun altitude
Exits shadow 06:16:27 22° 64° (ENE) 951 -1.4 -26.2°
Drops below altitude 10° 06:18:07 10° 88° (E) 1,464 0.0 -25.8°
Sets 06:20:23 0° 100° (E) 2,322 1.4 -25.4°
